TimeCDT,TemperatureF,Dew PointF,Humidity,Sea Level PressureIn,VisibilityMPH,Wind Direction,Wind SpeedMPH,Gust SpeedMPH,PrecipitationIn,Events,Conditions,WindDirDegrees,DateUTC
12:15 AM,69.8,54.9,59,30.07,10.0,Calm,Calm,-,N/A,,Clear,0,2013-07-03 05:15:00
12:35 AM,68.5,52.7,57,30.07,10.0,NNW,3.5,-,N/A,,Clear,330,2013-07-03 05:35:00
12:55 AM,67.5,53.1,60,30.07,10.0,Calm,Calm,-,N/A,,Clear,0,2013-07-03 05:55:00
1:15 AM,66.9,53.2,61,30.07,10.0,Calm,Calm,-,N/A,,Clear,0,2013-07-03 06:15:00
1:35 AM,66.6,53.4,63,30.07,10.0,Calm,Calm,-,N/A,,Clear,0,2013-07-03 06:35:00
1:55 AM,66.4,53.2,63,30.07,10.0,Calm,Calm,-,N/A,,Clear,0,2013-07-03 06:55:00
2:15 AM,66.2,53.2,63,30.06,10.0,Calm,Calm,-,N/A,,Clear,0,2013-07-03 07:15:00
2:35 AM,64.0,53.1,67,30.06,10.0,Calm,Calm,-,N/A,,Clear,0,2013-07-03 07:35:00
2:55 AM,64.4,53.8,68,30.06,10.0,Calm,Calm,-,N/A,,Clear,0,2013-07-03 07:55:00
3:15 AM,64.4,53.8,68,30.06,10.0,Calm,Calm,-,N/A,,Clear,0,2013-07-03 08:15:00
3:35 AM,64.4,54.1,69,30.06,10.0,Calm,Calm,-,N/A,,Clear,0,2013-07-03 08:35:00
3:55 AM,64.0,54.7,72,30.06,10.0,Calm,Calm,-,N/A,,Clear,0,2013-07-03 08:55:00
4:15 AM,63.9,54.5,72,30.06,10.0,Calm,Calm,-,N/A,,Clear,0,2013-07-03 09:15:00
4:35 AM,63.1,54.5,73,30.06,10.0,Calm,Calm,-,N/A,,Clear,0,2013-07-03 09:35:00
4:55 AM,62.8,53.8,72,30.06,10.0,Calm,Calm,-,N/A,,Clear,0,2013-07-03 09:55:00
5:15 AM,62.8,54.0,73,30.06,10.0,Calm,Calm,-,N/A,,Clear,0,2013-07-03 10:15:00
5:35 AM,62.2,54.1,75,30.07,10.0,Calm,Calm,-,N/A,,Clear,0,2013-07-03 10:35:00
5:55 AM,62.1,54.5,76,30.07,10.0,Calm,Calm,-,N/A,,Clear,0,2013-07-03 10:55:00
6:35 AM,61.2,54.5,79,30.07,10.0,Calm,Calm,-,N/A,,Clear,0,2013-07-03 11:35:00
7:15 AM,62.2,55.6,79,30.07,10.0,Calm,Calm,-,N/A,,Clear,0,2013-07-03 12:15:00
7:35 AM,64.6,57.9,79,30.08,10.0,Calm,Calm,-,N/A,,Clear,0,2013-07-03 12:35:00
7:55 AM,67.3,60.1,78,30.09,10.0,Calm,Calm,-,N/A,,Clear,0,2013-07-03 12:55:00
8:55 AM,74.1,54.3,50,30.10,10.0,Calm,Calm,-,N/A,,Clear,0,2013-07-03 13:55:00
9:35 AM,77.4,54.1,44,30.10,7.0,Calm,Calm,-,N/A,,Clear,0,2013-07-03 14:35:00
10:15 AM,81.5,54.9,40,30.09,10.0,Calm,Calm,-,N/A,,Clear,0,2013-07-03 15:15:00
10:55 AM,83.5,54.5,37,30.09,10.0,Calm,Calm,-,N/A,,Clear,0,2013-07-03 15:55:00
11:15 AM,85.6,51.3,30,30.09,10.0,North,3.5,-,N/A,,Clear,10,2013-07-03 16:15:00
11:35 AM,84.6,46.4,26,30.08,10.0,NW,4.6,-,N/A,,Clear,320,2013-07-03 16:35:00
11:55 AM,86.9,45.1,23,30.08,10.0,NNE,4.6,-,N/A,,Clear,30,2013-07-03 16:55:00
12:15 PM,88.9,44.1,21,30.08,10.0,East,6.9,-,N/A,,Clear,90,2013-07-03 17:15:00
1:35 PM,88.7,44.2,21,30.06,10.0,SSE,5.8,-,N/A,,Clear,150,2013-07-03 18:35:00
1:55 PM,88.7,45.3,22,30.05,10.0,NE,6.9,-,N/A,,Clear,40,2013-07-03 18:55:00
2:15 PM,90.1,45.1,21,30.04,10.0,North,4.6,-,N/A,,Scattered Clouds,360,2013-07-03 19:15:00
2:55 PM,87.3,44.6,23,30.04,10.0,NNW,3.5,-,N/A,,Clear,340,2013-07-03 19:55:00
3:15 PM,90.5,43.3,19,30.03,10.0,SE,6.9,-,N/A,,Clear,140,2013-07-03 20:15:00
3:35 PM,90.9,42.6,19,30.03,10.0,ESE,6.9,-,N/A,,Clear,110,2013-07-03 20:35:00
3:55 PM,89.1,41.9,19,30.02,10.0,Calm,Calm,-,N/A,,Clear,0,2013-07-03 20:55:00
4:15 PM,90.9,43.5,19,30.01,10.0,North,4.6,-,N/A,,Scattered Clouds,10,2013-07-03 21:15:00
4:35 PM,87.8,42.8,21,30.01,10.0,Calm,Calm,-,N/A,,Clear,0,2013-07-03 21:35:00
4:55 PM,88.9,41.4,19,30.00,10.0,Calm,Calm,-,N/A,,Clear,0,2013-07-03 21:55:00
5:15 PM,90.7,42.6,19,29.99,10.0,East,8.1,-,N/A,,Clear,80,2013-07-03 22:15:00
5:35 PM,90.9,43.5,19,29.99,10.0,SSE,8.1,-,N/A,,Clear,150,2013-07-03 22:35:00
5:55 PM,90.5,45.1,21,29.99,10.0,SE,10.4,-,N/A,,Clear,140,2013-07-03 22:55:00
6:15 PM,89.2,44.6,21,29.99,10.0,ESE,3.5,-,N/A,,Clear,120,2013-07-03 23:15:00
6:35 PM,88.9,43.9,21,29.98,10.0,ESE,4.6,-,N/A,,Clear,110,2013-07-03 23:35:00
6:55 PM,88.0,44.6,22,29.99,10.0,SE,4.6,-,N/A,,Clear,140,2013-07-03 23:55:00
7:15 PM,85.8,47.1,26,29.99,10.0,East,5.8,-,N/A,,Clear,90,2013-07-04 00:15:00
7:35 PM,85.3,48.4,28,29.99,10.0,East,4.6,-,N/A,,Clear,90,2013-07-04 00:35:00
7:55 PM,84.4,48.6,29,29.99,10.0,East,5.8,-,N/A,,Clear,100,2013-07-04 00:55:00
8:15 PM,82.6,49.6,32,29.99,10.0,East,5.8,-,N/A,,Clear,90,2013-07-04 01:15:00
8:35 PM,80.8,50.5,35,29.99,10.0,East,5.8,-,N/A,,Clear,90,2013-07-04 01:35:00
8:55 PM,79.2,51.8,38,29.99,10.0,East,5.8,-,N/A,,Clear,90,2013-07-04 01:55:00
9:15 PM,77.9,52.7,41,30.00,10.0,East,4.6,-,N/A,,Clear,90,2013-07-04 02:15:00
9:35 PM,77.4,53.4,43,30.01,10.0,ESE,4.6,-,N/A,,Clear,110,2013-07-04 02:35:00
9:55 PM,77.0,53.4,44,30.01,10.0,ESE,5.8,-,N/A,,Clear,110,2013-07-04 02:55:00
10:15 PM,75.6,53.8,47,30.01,10.0,East,5.8,-,N/A,,Clear,100,2013-07-04 03:15:00
10:35 PM,75.2,54.0,47,30.02,10.0,East,5.8,-,N/A,,Clear,100,2013-07-04 03:35:00
10:55 PM,74.8,54.1,48,30.02,10.0,ESE,4.6,-,N/A,,Clear,110,2013-07-04 03:55:00
11:15 PM,74.1,54.5,50,30.03,10.0,ESE,4.6,-,N/A,,Clear,110,2013-07-04 04:15:00
11:35 PM,73.6,54.9,52,30.03,10.0,ESE,5.8,-,N/A,,Clear,110,2013-07-04 04:35:00
11:55 PM,75.0,55.0,50,30.02,10.0,ESE,5.8,-,N/A,,Clear,120,2013-07-04 04:55:00